Regional Weather Roundup
Issued by NWS Newport/Morehead, NC

Current Version | Previous Version | Graphics & Text | Print | Product List | Glossary Off
Versions: 1 2 3 4 5 6 7 8 9 10 11 12 13 14 15 16 17 18 19 20 21 22 23 24 25 26 27 28 29 30 31 32 33 34 35 36 37 38 39 40 41 42 43 44 45 46 47 48 49 50

006
ASUS42 KMHX 121525
RWRMHX
WEATHER ROUNDUP FOR EASTERN NORTH CAROLINA
NATIONAL WEATHER SERVICE NEWPORT/MOREHEAD CITY NC
1000 AM EST TUE DEC 12 2017

NOTE: "FAIR" INDICATES FEW OR NO CLOUDS BELOW 12,000 FEET
WITH NO SIGNIFICANT WEATHER AND/OR OBSTRUCTIONS TO VISIBILITY

NCZ015>017-031-032-045>047-102-103-121600-
NORTH COAST

CITY           SKY/WX    TMP DP  RH WIND       PRES   REMARKS
EDENTON        SUNNY     51  41  69 SW10      29.70F
ELIZABETH CITY MOSUNNY   49  42  77 SW14      29.68F
KITTY HAWK     SUNNY     51  41  68 SW5       29.68F
MANTEO         SUNNY     52  42  67 SW13      29.69F

$$

NCZ045>047-081-094-103-104-121600-
CENTRAL COAST

CITY           SKY/WX    TMP DP  RH WIND       PRES   REMARKS
FRISCO         MOSUNNY   61  46  57 SW21G31   29.72F

$$

NCZ095-097-098-100-101-121600-
SOUTHERN COAST

CITY           SKY/WX    TMP DP  RH WIND       PRES   REMARKS
BEAUFORT       MOSUNNY   58  46  64 SW18G26   29.74F
CEDAR ISLAND   NOT AVBL
JACKSONVILLE   MOSUNNY   55  40  56 SW12G21   29.73F
PINEY ISLAND     N/A    N/A N/A N/A SW17G23   29.72F
WILMINGTON     SUNNY     58  42  55 SW8       29.75F


$$

NCZ011>013-027>030-043-044-078>080-089-090>093-098-121600-
COASTAL PLAIN

CITY           SKY/WX    TMP DP  RH WIND       PRES   REMARKS
AHOSKIE        MOSUNNY   49  38  66 SW3       29.67F
CLINTON        MOSUNNY   50  40  69 SW12G17   29.73F
ELIZABETHTOWN  NOT AVBL
GOLDSBORO      MOSUNNY   50  38  63 SW12      29.70F
GREENVILLE     SUNNY     50  36  57 SW12G18   29.74S
HAVELOCK       SUNNY     57  44  62 SW13      29.74F
KENANSVILLE    SUNNY     52  39  62 SW8G20    29.73F
KINSTON        SUNNY     50  39  66 SW13G18   29.73F
NEW BERN       SUNNY     51  41  68 SW10      29.74F
RICHLANDS      SUNNY     53  40  61 SW12G20   29.74F
ROCKY MOUNT    MOSUNNY   47  39  74 SW9       29.70F
WASHINGTON     SUNNY     51  38  62 SW12G17   29.71F
WHITEVILLE     SUNNY     51  39  63 SW10      29.75F

$$

AMZ130-135-150-152-154-156-158-170-250-252-270-ANZ085-086-088-633-658-670-121600-
MARINE OBSERVATIONS

STATION/POSITION TIME  TEMP    WIND        PRES    WAVE   SWELL
                       AIR SEA DIR/SP/G            HT/PER HT/PER
                 (UTC) (F)     (DEG/KT/KT) (MB)    (FT/S) (FT/S)
CHESAPEAKE LIGHT NOT AVBL
64 E VA BEACH    1450   57 61  220/ 23/ 29 1004.1    6/ 5   2/ 8
DUCK             1500   50 55  220/ 19/ 23 1004.5
2 E DUCK         1500      55                N/A     2/ 9
OREGON INLET     1500   51 46  200/ 16/ 20 1005.2
13E OREGON INLT  1448      58                N/A     4/ 5   2/ 8
HATTERAS CG      1500   60 55  230/ 17/ 26 1006.1
DIAMOND BUOY     1510   64 74  230/ 25/ 31 1006.8
CAPE LOOKOUT     1500          220/ 16/ 20 1007.4
BEAUFORT LAB     1500   58 52  230/  7/ 14 1006.9
30 SE NEW RVR IN 1508   62 66  230/ 19/ 25 1007.8
30 SE NEW RVR IN 1500      65                N/A     8/ 6
27 SE WRIGHTSVLE 1508   61 65  230/ 23/ 31 1008.2
5 SE WRIGHTSVLE  1508   58 58  230/ 16/ 23 1007.4
225 S CAPE HAT   1450   70 75  230/ 21/ 29 1012.3    6/ 6   2/12
41 SE CHARLESTON 1510   64 74  240/ 21/ 27 1009.7

$$




USA.gov is the U.S. government's official web portal to all federal, state and local government web resources and services.